DELTA 1 DEB, 7200

Orbit data source: Space-Track

DELTA 1 DEB, 7200 is space debris in SSO originally from a launch on Tue, 06 Nov 1973 UTC launched from the Air Force Western Test Range (AFWTR). Debris objects in space refer to the collection of defunct objects orbiting the Earth. Examples of debris include non-operational satellites, rocket bodies, and fragments generated from explosions, collisions, or faulty payload assembly.

Loading next visibility...
Identifier
7200, 1973-086FJ
Orbit
SSO
Country
Flag of USUS
Related business
Manufacturer
Unknown
Mission
Spacecraft
Bus & Motor
Unknown
Mass
Unknown
Launch date (UTC)
1973-11-06 (53 years ago)
Launch vehicle
Unknown
Launch site
Air Force Western Test Range (AFWTR)
Object type
Payload
Rocket body
Debris
Shape & HBR
Unknown shape, 0.1 m
Radar Cross Section
Medium (>0.1 m² and <1 m²)

Expand to show TLE details & history
Last TLE update: 2 days ago

TLE from 2 days ago
0 DELTA 1 DEB
1  7200U 73086FJ  26219.92239840 -.00000328  00000-0 -30316-2 0  9990
2  7200 102.3946 202.1355 0292985 264.2061 154.6222 12.01980212308526
Epoch: 2026-08-07T22:08Z
TLE epoch observation values (Epoch: 2026-08-07T22:08:15.221Z)
Latitude
58.05237°
Longitude
-106.90374°
Altitude
1,895.901 km
Speed
6.854 km/s
True Right ascension
12h 06m 24s
True Declination
57° 55' 09"
Sunlit
Object was in daylight at epoch
Visualization orbit readout
Latitude
Unknown
Longitude
Unknown
Altitude
Unknown
Speed
Unknown
Apparent Right ascension
Unknown
Apparent Declination
Unknown
Sunlit
N/A
Visualization observer readout
Local Sidereal Time
15:09:59
Azimuth
Unknown
Elevation
Unknown
Doppler factor
Unknown
Orbital elements
Apogee altitude
1,905.44 km
Perigee altitude
1,433.864 km
Semi-major axis
8,047.789 km
Eccentricity
0.0293
Inclination
102.3946°
RAAN
202.1355°
Arg. of periapsis
264.2061°
True anomaly
156.01483°
Mean anomaly
154.6222°
Eccentric anomaly
155.32305°
Mean motion
3.00627 °/min
Orbital period
119.75 mins
BSTAR
-0.0030316
Loading maneuver chart data...
Computing Atmospheric mass density...
Loading historical data...
Loading historical data...
Loading historical data...
Loading historical data...
Loading historical data...
Loading historical data...
Loading historical data...

Documentation

Showing up to 5 results
|